Location: *
(6.0000°S, 32.3997°W)
Time: 21:56:30
(UTC+00:00)

Okean-O - Pass Details

Date: 01 April 2020
Orbit: 639 x 640 km, 98.2° (Epoch: 02 June)

Event Time Altitude Azimuth Distance (km) Brightness Sun altitude
Rises 20:48:59 0° 170° (S) 2,946 5.9 -9.4°
Reaches altitude 10° 20:51:11 10° 171° (S) 2,034 5.1 -9.9°
Maximum altitude 20:55:37 82° 257° (WSW) 650 2.7 -11.0°
Drops below altitude 10° 21:00:01 10° 345° (NNW) 2,020 5.4 -12.1°
Sets 21:02:13 0° 346° (NNW) 2,925 6.3 -12.7°
